| time (UTC) | temp F | wind direction | speed MPH | gust MPH | rain 1hr in | rain 24hr in | rain mn in | humidity % | barometer mb |
| 20260506170113 | 52 | 204 | 9.0 | 14.0 | 0.08 | 0.17 | 0.16 | 91 | 1009.2 |
| 20260506165114 | 52 | 298 | 9.0 | 14.0 | 0.08 | 0.16 | 0.15 | 90 | 1009.1 |
| 20260506164113 | 52 | 175 | 5.0 | 14.0 | 0.07 | 0.14 | 0.13 | 91 | 1009.1 |
| 20260506163113 | 52 | 242 | 4.0 | 10.0 | 0.06 | 0.12 | 0.11 | 90 | 1009.1 |
| 20260506162113 | 53 | 146 | 5.0 | 12.0 | 0.06 | 0.11 | 0.10 | 90 | 1009.0 |
| 20260506161113 | 53 | 171 | 6.0 | 13.0 | 0.05 | 0.09 | 0.09 | 90 | 1009.1 |
| 20260506160113 | 53 | 97 | 7.0 | 14.0 | 0.04 | 0.09 | 0.08 | 89 | 1009.1 |
| 20260506155113 | 53 | 203 | 7.0 | 12.0 | 0.03 | 0.08 | 0.07 | 89 | 1009.0 |
| 20260506153113 | 53 | 264 | 7.0 | 14.0 | 0.02 | 0.06 | 0.06 | 88 | 1008.8 |
| 20260506151113 | 53 | 206 | 9.0 | 17.0 | 0.00 | 0.05 | 0.04 | 86 | 1008.8 |
| 20260506150112 | 53 | 197 | 7.0 | 15.0 | 0.00 | 0.05 | 0.04 | 86 | 1008.7 |
| 20260506145113 | 53 | 271 | 7.0 | 17.0 | 0.01 | 0.05 | 0.04 | 86 | 1008.7 |
| 20260506143112 | 54 | 180 | 5.0 | 14.0 | 0.01 | 0.05 | 0.04 | 86 | 1008.6 |
| 20260506142112 | 54 | 262 | 6.0 | 13.0 | 0.01 | 0.05 | 0.04 | 86 | 1008.6 |
| 20260506141112 | 54 | 168 | 10.0 | 18.0 | 0.01 | 0.05 | 0.04 | 87 | 1008.5 |
| 20260506140112 | 54 | 211 | 6.0 | 16.0 | 0.02 | 0.05 | 0.04 | 86 | 1008.4 |
| 20260506135113 | 54 | 155 | 5.0 | 13.0 | 0.01 | 0.19 | 0.03 | 87 | 1008.4 |
| 20260506134113 | 55 | 178 | 5.0 | 11.0 | 0.01 | 0.19 | 0.03 | 88 | 1008.4 |
| 20260506133113 | 54 | 275 | 6.0 | 15.0 | 0.02 | 0.19 | 0.03 | 88 | 1008.4 |
| 20260506132112 | 55 | 284 | 5.0 | 15.0 | 0.02 | 0.19 | 0.03 | 87 | 1008.3 |
| 20260506131112 | 55 | 209 | 7.0 | 16.0 | 0.02 | 0.19 | 0.03 | 86 | 1008.3 |
| 20260506130111 | 55 | 253 | 7.0 | 15.0 | 0.02 | 0.18 | 0.02 | 86 | 1008.2 |
| 20260506125111 | 55 | 247 | 8.0 | 18.0 | 0.02 | 0.18 | 0.02 | 86 | 1008.0 |
| 20260506123111 | 56 | 227 | 9.0 | 19.0 | 0.02 | 0.17 | 0.02 | 88 | 1007.6 |
| 20260506122111 | 56 | 256 | 9.0 | 18.0 | 0.02 | 0.17 | 0.02 | 87 | 1007.5 |
| 20260506121111 | 57 | 231 | 7.0 | 15.0 | 0.02 | 0.17 | 0.02 | 88 | 1007.5 |
| 20260506120111 | 57 | 282 | 7.0 | 16.0 | 0.01 | 0.17 | 0.01 | 89 | 1007.3 |
| 20260506115111 | 57 | 238 | 7.0 | 15.0 | 0.01 | 0.17 | 0.01 | 88 | 1007.3 |
| 20260506114111 | 58 | 254 | 5.0 | 13.0 | 0.01 | 0.17 | 0.01 | 87 | 1007.3 |
| 20260506113111 | 58 | 265 | 5.0 | 12.0 | 0.00 | 0.16 | 0.00 | 86 | 1007.2 |
| 20260506111111 | 58 | 299 | 6.0 | 13.0 | 0.00 | 0.16 | 0.00 | 84 | 1007.2 |
| 20260506110111 | 58 | 262 | 4.0 | 12.0 | 0.00 | 0.16 | 0.00 | 84 | 1007.2 |
| 20260506104112 | 59 | 275 | 3.0 | 13.0 | 0.00 | 0.16 | 0.00 | 81 | 1007.0 |
| 20260506103111 | 59 | 222 | 5.0 | 12.0 | 0.00 | 0.16 | 0.00 | 79 | 1006.9 |
| 20260506102111 | 59 | 235 | 3.0 | 12.0 | 0.00 | 0.16 | 0.00 | 79 | 1006.9 |
| 20260506101111 | 59 | 258 | 6.0 | 11.0 | 0.00 | 0.16 | 0.00 | 80 | 1006.8 |
| 20260506100110 | 59 | 256 | 4.0 | 8.0 | 0.00 | 0.16 | 0.00 | 80 | 1006.7 |
| 20260506095110 | 59 | 231 | 6.0 | 13.0 | 0.00 | 0.16 | 0.00 | 80 | 1006.6 |
| 20260506094110 | 59 | 206 | 6.0 | 11.0 | 0.00 | 0.16 | 0.00 | 79 | 1006.6 |
| 20260506093110 | 59 | 204 | 4.0 | 8.0 | 0.00 | 0.16 | 0.00 | 79 | 1006.7 |
| 20260506092110 | 59 | 183 | 4.0 | 7.0 | 0.00 | 0.16 | 0.00 | 79 | 1006.6 |
| 20260506091110 | 59 | 164 | 7.0 | 14.0 | 0.00 | 0.16 | 0.00 | 78 | 1006.6 |
| 20260506090110 | 59 | 288 | 5.0 | 8.0 | 0.00 | 0.16 | 0.00 | 78 | 1006.4 |
| 20260506085110 | 60 | 236 | 5.0 | 10.0 | 0.00 | 0.16 | 0.00 | 77 | 1006.4 |
| 20260506084110 | 60 | 217 | 6.0 | 13.0 | 0.00 | 0.16 | 0.00 | 77 | 1006.2 |
| 20260506083110 | 60 | 351 | 4.0 | 12.0 | 0.00 | 0.16 | 0.00 | 78 | 1006.1 |
| 20260506082110 | 60 | 348 | 5.0 | 12.0 | 0.00 | 0.16 | 0.00 | 78 | 1006.1 |
| 20260506081110 | 60 | 276 | 5.0 | 11.0 | 0.00 | 0.16 | 0.00 | 79 | 1006.1 |
| 20260506080109 | 59 | 247 | 2.0 | 10.0 | 0.00 | 0.16 | 0.00 | 80 | 1006.4 |
| 20260506072109 | 58 | 263 | 5.0 | 11.0 | 0.00 | 0.16 | 0.00 | 79 | 1006.2 |
| 20260506071109 | 58 | 207 | 5.0 | 11.0 | 0.00 | 0.16 | 0.00 | 81 | 1006.2 |
| 20260506070109 | 58 | 192 | 4.0 | 12.0 | 0.00 | 0.16 | 0.00 | 79 | 1006.2 |
| 20260506062109 | 56 | 169 | 4.0 | 10.0 | 0.00 | 0.16 | 0.00 | 83 | 1006.4 |
| 20260506061108 | 56 | 178 | 4.0 | 6.0 | 0.00 | 0.16 | 0.00 | 85 | 1006.3 |
| 20260506051108 | 53 | 222 | 4.0 | 7.0 | 0.00 | 0.16 | 0.00 | 87 | 1006.2 |
| 20260506050108 | 53 | 232 | 3.0 | 5.0 | 0.00 | 0.16 | 0.00 | 87 | 1006.5 |
| 20260506045108 | 53 | 211 | 4.0 | 6.0 | 0.00 | 0.16 | 0.00 | 87 | 1006.7 |
| 20260506044108 | 53 | 181 | 5.0 | 10.0 | 0.00 | 0.16 | 0.00 | 88 | 1006.8 |
| 20260506043108 | 53 | 263 | 0.0 | 3.0 | 0.00 | 0.16 | 0.00 | 88 | 1006.8 |
| 20260506042108 | 53 | 273 | 2.0 | 6.0 | 0.00 | 0.16 | 0.00 | 87 | 1006.7 |
| 20260506041112 | 53 | 154 | 3.0 | 12.0 | 0.00 | 0.16 | 0.00 | 87 | 1006.7 |
| 20260506035112 | 53 | 202 | 6.0 | 10.0 | 0.00 | 0.16 | 0.00 | 88 | 1007.1 |
| 20260506034112 | 52 | 197 | 1.0 | 4.0 | 0.00 | 0.16 | 0.00 | 88 | 1007.2 |
| 20260506033112 | 52 | 275 | 2.0 | 5.0 | 0.00 | 0.16 | 0.00 | 88 | 1007.1 |
| 20260506032112 | 52 | 280 | 1.0 | 4.0 | 0.00 | 0.16 | 0.00 | 88 | 1007.2 |
| 20260506031112 | 51 | 261 | 1.0 | 4.0 | 0.00 | 0.16 | 0.00 | 89 | 1007.2 |
| 20260506030112 | 50 | 262 | 2.0 | 6.0 | 0.00 | 0.16 | 0.00 | 91 | 1007.2 |
| 20260506024112 | 50 | 258 | 0.0 | 1.0 | 0.00 | 0.16 | 0.00 | 91 | 1007.3 |
| 20260506023112 | 51 | 258 | 0.0 | 0.0 | 0.00 | 0.16 | 0.00 | 91 | 1007.5 |
| 20260506022112 | 51 | 258 | 0.0 | 2.0 | 0.00 | 0.16 | 0.00 | 90 | 1007.7 |
| 20260506021112 | 52 | 248 | 0.0 | 3.0 | 0.00 | 0.16 | 0.00 | 89 | 1007.7 |
| 20260506015112 | 53 | 265 | 0.0 | 3.0 | 0.00 | 0.16 | 0.00 | 88 | 1007.7 |
| 20260506014111 | 52 | 282 | 1.0 | 3.0 | 0.00 | 0.16 | 0.00 | 88 | 1008.0 |
| 20260506013111 | 52 | 239 | 0.0 | 0.0 | 0.00 | 0.16 | 0.00 | 90 | 1008.0 |
| 20260506012111 | 51 | 235 | 1.0 | 3.0 | 0.00 | 0.16 | 0.00 | 90 | 1008.2 |
| 20260506011111 | 51 | 261 | 1.0 | 4.0 | 0.00 | 0.16 | 0.00 | 90 | 1008.2 |
| 20260506010111 | 51 | 272 | 1.0 | 4.0 | 0.00 | 0.16 | 0.00 | 91 | 1008.0 |
| 20260506005111 | 51 | 211 | 2.0 | 3.0 | 0.00 | 0.16 | 0.00 | 92 | 1008.0 |
| 20260506003111 | 51 | 242 | 3.0 | 3.0 | 0.00 | 0.16 | 0.00 | 92 | 1008.1 |
| 20260506002111 | 51 | 225 | 1.0 | 2.0 | 0.00 | 0.16 | 0.00 | 91 | 1008.2 |
| 20260506001111 | 51 | 235 | 2.0 | 3.0 | 0.00 | 0.16 | 0.00 | 91 | 1008.5 |
| 20260506000111 | 52 | 230 | 1.0 | 3.0 | 0.00 | 0.16 | 0.00 | 90 | 1008.5 |
| 20260505234111 | 52 | 275 | 0.0 | 0.0 | 0.00 | 0.16 | 0.00 | 90 | 1008.6 |
| 20260505233110 | 52 | 275 | 0.0 | 0.0 | 0.00 | 0.16 | 0.00 | 90 | 1008.9 |
| 20260505231110 | 52 | 270 | 2.0 | 3.0 | 0.00 | 0.16 | 0.00 | 89 | 1008.9 |
| 20260505230111 | 52 | 249 | 1.0 | 3.0 | 0.00 | 0.16 | 0.00 | 90 | 1008.9 |
| 20260505225110 | 52 | 258 | 2.0 | 3.0 | 0.00 | 0.16 | 0.00 | 90 | 1008.9 |
| 20260505223110 | 53 | 230 | 1.0 | 3.0 | 0.00 | 0.16 | 0.00 | 89 | 1008.9 |
| 20260505222110 | 53 | 232 | 2.0 | 4.0 | 0.00 | 0.16 | 0.00 | 89 | 1009.0 |
| 20260505221110 | 53 | 256 | 1.0 | 2.0 | 0.00 | 0.16 | 0.00 | 89 | 1009.0 |
| 20260505220110 | 53 | 256 | 0.0 | 3.0 | 0.00 | 0.16 | 0.00 | 89 | 1009.1 |
| 20260505214109 | 52 | 219 | 1.0 | 2.0 | 0.00 | 0.16 | 0.16 | 90 | 1009.0 |
| 20260505213109 | 53 | 229 | 2.0 | 4.0 | 0.00 | 0.16 | 0.16 | 89 | 1009.0 |
| 20260505211111 | 54 | 186 | 4.0 | 6.0 | 0.00 | 0.16 | 0.16 | 89 | 1009.3 |
| 20260505210109 | 54 | 211 | 3.0 | 5.0 | 0.00 | 0.16 | 0.16 | 89 | 1009.1 |
| 20260505205109 | 54 | 171 | 5.0 | 7.0 | 0.00 | 0.16 | 0.16 | 89 | 1009.4 |
| 20260505204109 | 55 | 220 | 4.0 | 7.0 | 0.00 | 0.16 | 0.16 | 89 | 1009.3 |
| 20260505203109 | 55 | 200 | 5.0 | 6.0 | 0.00 | 0.16 | 0.16 | 89 | 1009.3 |
| 20260505202109 | 55 | 211 | 3.0 | 5.0 | 0.00 | 0.16 | 0.16 | 89 | 1009.1 |
| 20260505201109 | 56 | 235 | 1.0 | 2.0 | 0.00 | 0.16 | 0.16 | 89 | 1009.0 |
| 20260505200109 | 56 | 223 | 1.0 | 4.0 | 0.00 | 0.16 | 0.16 | 90 | 1009.1 |
| 20260505195109 | 55 | 236 | 1.0 | 3.0 | 0.00 | 0.16 | 0.16 | 89 | 1008.9 |
| 20260505193108 | 55 | 232 | 1.0 | 3.0 | 0.00 | 0.16 | 0.16 | 88 | 1008.8 |
| 20260505192108 | 56 | 258 | 1.0 | 4.0 | 0.00 | 0.16 | 0.16 | 87 | 1008.7 |
| 20260505191108 | 57 | 228 | 1.0 | 4.0 | 0.00 | 0.16 | 0.16 | 86 | 1008.4 |
| 20260505185113 | 58 | 256 | 2.0 | 5.0 | 0.01 | 0.16 | 0.16 | 86 | 1008.3 |
| 20260505183113 | 58 | 219 | 4.0 | 10.0 | 0.01 | 0.16 | 0.16 | 84 | 1008.0 |
| 20260505182113 | 58 | 228 | 5.0 | 8.0 | 0.01 | 0.16 | 0.16 | 86 | 1007.9 |
| 20260505181113 | 59 | 182 | 8.0 | 15.0 | 0.01 | 0.16 | 0.16 | 86 | 1007.9 |
| 20260505180112 | 60 | 185 | 11.0 | 18.0 | 0.01 | 0.16 | 0.16 | 84 | 1008.2 |
| 20260505175112 | 61 | 225 | 4.0 | 10.0 | 0.00 | 0.16 | 0.15 | 82 | 1007.9 |
| 20260505174112 | 62 | 232 | 3.0 | 5.0 | 0.00 | 0.16 | 0.15 | 80 | 1007.8 |
| 20260505173112 | 62 | 250 | 2.0 | 5.0 | 0.00 | 0.16 | 0.15 | 79 | 1007.7 |
| 20260505172112 | 63 | 261 | 1.0 | 6.0 | 0.00 | 0.16 | 0.15 | 78 | 1007.7 |